User: anonymous   Login
Location: Unspecified
(0.0000°N, 0.0000°E)
Time: 16:05:07
(UTC+00:00)
Language:

PRATHAM - Orbit

View from above orbital plane
View from above orbital plane
View from above satellite
View from above satellite

Ground track
Ground track

The orbit data is extracted from the following two-line orbital elements,

1 41783U 16059A   23342.49628965  .00000686  00000-0  13778-3 0  9996
2 41783  97.8531   5.7512 0031392 268.5309  91.2298 14.64354600384480
Epoch (UTC): 08 December 2023 11:54:39
Eccentricity: 0.0031392
inclination: 97.8531°
perigee height: 657 km
apogee height: 701 km
right ascension of ascending node: 5.7512°
argument of perigee: 268.5309°
revolutions per day: 14.64354600
mean anomaly at epoch: 91.2298°
orbit number at epoch: 38448

The dashed part of the orbit path shows where the satellite is in the earth's shadow,  

DLR